User: anonymous   Login
Location: Caltech
(34.1382°N, 118.1253°W)
Time: 23:37:54
(UTC-07:00)
Language:

Cosmos 1937 Rocket - Orbit

View from above orbital plane
View from above orbital plane
View from above satellite
View from above satellite

Ground track
Ground track

The orbit data is extracted from the following two-line orbital elements,

1 19039U 88029B   16273.01251273 -.00000015  00000-0  37144-5 0  9990
2 19039  74.0478  60.3614 0024644 297.3473 196.5701 14.38330796493301
Epoch (UTC): 29 September 2016 00:18:01
Eccentricity: 0.0024644
inclination: 74.0478°
perigee height: 746 km
apogee height: 781 km
right ascension of ascending node: 60.3614°
argument of perigee: 297.3473°
revolutions per day: 14.38330796
mean anomaly at epoch: 196.5701°
orbit number at epoch: 49330

The dashed part of the orbit path shows where the satellite is in the earth's shadow,  

DLR